Year,Month,Day,Hour,Minute,Value (Times are PST for temperature in C)
2016,08,20,00,00,19.40
2016,08,20,00,01,19.30
2016,08,20,00,02,19.30
2016,08,20,00,03,19.30
2016,08,20,00,04,19.30
2016,08,20,00,05,19.30
2016,08,20,00,06,19.30
2016,08,20,00,07,19.30
2016,08,20,00,08,19.30
2016,08,20,00,09,19.30
2016,08,20,00,10,19.30
2016,08,20,00,11,19.30
2016,08,20,00,12,19.30
2016,08,20,00,13,19.30
2016,08,20,00,14,19.30
2016,08,20,00,15,19.20
2016,08,20,00,16,19.20
2016,08,20,00,17,19.20
2016,08,20,00,18,19.20
2016,08,20,00,19,19.10
2016,08,20,00,20,19.10
2016,08,20,00,21,19.00
2016,08,20,00,22,19.00
2016,08,20,00,23,18.90
2016,08,20,00,24,18.90
2016,08,20,00,25,18.90
2016,08,20,00,26,18.80
2016,08,20,00,27,18.80
2016,08,20,00,28,18.80
2016,08,20,00,29,18.80
2016,08,20,00,30,18.80
2016,08,20,00,31,18.70
2016,08,20,00,32,18.70
2016,08,20,00,33,18.70
2016,08,20,00,34,18.70
2016,08,20,00,35,18.60
2016,08,20,00,36,18.60
2016,08,20,00,37,18.60
2016,08,20,00,38,18.60
2016,08,20,00,39,18.60
2016,08,20,00,40,18.60
2016,08,20,00,41,18.60
2016,08,20,00,42,18.60
2016,08,20,00,43,18.60
2016,08,20,00,44,18.60
2016,08,20,00,45,18.50
2016,08,20,00,46,18.50
2016,08,20,00,47,18.50
2016,08,20,00,48,18.50
2016,08,20,00,49,18.50
2016,08,20,00,50,18.40
2016,08,20,00,51,18.40
2016,08,20,00,52,18.40
2016,08,20,00,53,18.30
2016,08,20,00,54,18.30
2016,08,20,00,55,18.30
2016,08,20,00,56,18.20
2016,08,20,00,57,18.20
2016,08,20,00,58,18.20
2016,08,20,00,59,18.10
2016,08,20,01,00,18.10
2016,08,20,01,01,18.10
2016,08,20,01,02,18.00
2016,08,20,01,03,18.00
2016,08,20,01,04,17.90
2016,08,20,01,05,17.90
2016,08,20,01,06,17.90
2016,08,20,01,07,17.80
2016,08,20,01,08,17.80
2016,08,20,01,09,17.80
2016,08,20,01,10,17.80
2016,08,20,01,11,17.80
2016,08,20,01,12,17.80
2016,08,20,01,13,17.80
2016,08,20,01,14,17.70
2016,08,20,01,15,17.70
2016,08,20,01,16,17.70
2016,08,20,01,17,17.70
2016,08,20,01,18,17.70
2016,08,20,01,19,17.70
2016,08,20,01,20,17.70
2016,08,20,01,21,17.70
2016,08,20,01,22,17.70
2016,08,20,01,23,17.70
2016,08,20,01,24,17.70
2016,08,20,01,25,17.60
2016,08,20,01,26,17.60
2016,08,20,01,27,17.60
2016,08,20,01,28,17.60
2016,08,20,01,29,17.60
2016,08,20,01,30,17.60
2016,08,20,01,31,17.60
2016,08,20,01,32,17.60
2016,08,20,01,33,17.50
2016,08,20,01,34,17.50
2016,08,20,01,35,17.50
2016,08,20,01,36,17.50
2016,08,20,01,37,17.50
2016,08,20,01,38,17.50
2016,08,20,01,39,17.40
2016,08,20,01,40,17.40
2016,08,20,01,41,17.40
2016,08,20,01,42,17.40
2016,08,20,01,43,17.40
2016,08,20,01,44,17.30
2016,08,20,01,45,17.30
2016,08,20,01,46,17.30
2016,08,20,01,47,17.30
2016,08,20,01,48,17.30
2016,08,20,01,49,17.20
2016,08,20,01,50,17.20
2016,08,20,01,51,17.20
2016,08,20,01,52,17.20
2016,08,20,01,53,17.20
2016,08,20,01,54,17.20
2016,08,20,01,55,17.20
2016,08,20,01,56,17.20
2016,08,20,01,57,17.20
2016,08,20,01,58,17.10
2016,08,20,01,59,17.10
2016,08,20,02,00,17.10
2016,08,20,02,01,17.10
2016,08,20,02,02,17.10
2016,08,20,02,03,17.10
2016,08,20,02,04,17.10
2016,08,20,02,05,17.10
2016,08,20,02,06,17.10
2016,08,20,02,07,17.10
2016,08,20,02,08,17.00
2016,08,20,02,09,17.00
2016,08,20,02,10,17.00
2016,08,20,02,11,16.90
2016,08,20,02,12,16.90
2016,08,20,02,13,16.90
2016,08,20,02,14,16.80
2016,08,20,02,15,16.80
2016,08,20,02,16,16.80
2016,08,20,02,17,16.80
2016,08,20,02,18,16.80
2016,08,20,02,19,16.80
2016,08,20,02,20,16.80
2016,08,20,02,21,16.80
2016,08,20,02,22,16.80
2016,08,20,02,23,16.80
2016,08,20,02,24,16.90
2016,08,20,02,25,16.90
2016,08,20,02,26,16.90
2016,08,20,02,27,16.80
2016,08,20,02,28,16.80
2016,08,20,02,29,16.80
2016,08,20,02,30,16.80
2016,08,20,02,31,16.80
2016,08,20,02,32,16.80
2016,08,20,02,33,16.80
2016,08,20,02,34,16.70
2016,08,20,02,35,16.70
2016,08,20,02,36,16.70
2016,08,20,02,37,16.70
2016,08,20,02,38,16.60
2016,08,20,02,39,16.60
2016,08,20,02,40,16.60
2016,08,20,02,41,16.60
2016,08,20,02,42,16.60
2016,08,20,02,43,16.60
2016,08,20,02,44,16.60
2016,08,20,02,45,16.60
2016,08,20,02,46,16.60
2016,08,20,02,47,16.60
2016,08,20,02,48,16.50
2016,08,20,02,49,16.50
2016,08,20,02,50,16.50
2016,08,20,02,51,16.50
2016,08,20,02,52,16.50
2016,08,20,02,53,16.60
2016,08,20,02,54,16.60
2016,08,20,02,55,16.60
2016,08,20,02,56,16.60
2016,08,20,02,57,16.60
2016,08,20,02,58,16.60
2016,08,20,02,59,16.60
2016,08,20,03,00,16.60
2016,08,20,03,01,16.60
2016,08,20,03,02,16.50
2016,08,20,03,03,16.50
2016,08,20,03,04,16.50
2016,08,20,03,05,16.40
2016,08,20,03,06,16.40
2016,08,20,03,07,16.40
2016,08,20,03,08,16.30
2016,08,20,03,09,16.30
2016,08,20,03,10,16.30
2016,08,20,03,11,16.30
2016,08,20,03,12,16.30
2016,08,20,03,13,16.30
2016,08,20,03,14,16.20
2016,08,20,03,15,16.20
2016,08,20,03,16,16.20
2016,08,20,03,17,16.20
2016,08,20,03,18,16.20
2016,08,20,03,19,16.10
2016,08,20,03,20,16.10
2016,08,20,03,21,16.10
2016,08,20,03,22,16.10
2016,08,20,03,23,16.00
2016,08,20,03,24,16.00
2016,08,20,03,25,15.90
2016,08,20,03,26,15.90
2016,08,20,03,27,15.90
2016,08,20,03,28,15.90
2016,08,20,03,29,15.90
2016,08,20,03,30,15.80
2016,08,20,03,31,15.80
2016,08,20,03,32,15.80
2016,08,20,03,33,15.80
2016,08,20,03,34,15.80
2016,08,20,03,35,15.80
2016,08,20,03,36,15.80
2016,08,20,03,37,15.70
2016,08,20,03,38,15.70
2016,08,20,03,39,15.70
2016,08,20,03,40,15.70
2016,08,20,03,41,15.70
2016,08,20,03,42,15.60
2016,08,20,03,43,15.60
2016,08,20,03,44,15.60
2016,08,20,03,45,15.60
2016,08,20,03,46,15.60
2016,08,20,03,47,15.60
2016,08,20,03,48,15.60
2016,08,20,03,49,15.60
2016,08,20,03,50,15.60
2016,08,20,03,51,15.60
2016,08,20,03,52,15.70
2016,08,20,03,53,15.70
2016,08,20,03,54,15.70
2016,08,20,03,55,15.70
2016,08,20,03,56,15.80
2016,08,20,03,57,15.80
2016,08,20,03,58,15.90
2016,08,20,03,59,15.90
2016,08,20,04,00,15.90
2016,08,20,04,01,15.90
2016,08,20,04,02,15.90
2016,08,20,04,03,15.80
2016,08,20,04,04,15.80
2016,08,20,04,05,15.80
2016,08,20,04,06,15.80
2016,08,20,04,07,15.80
2016,08,20,04,08,15.80
2016,08,20,04,09,15.70
2016,08,20,04,10,15.70
2016,08,20,04,11,15.70
2016,08,20,04,12,15.70
2016,08,20,04,13,15.70
2016,08,20,04,14,15.60
2016,08,20,04,15,15.60
2016,08,20,04,16,15.60
2016,08,20,04,17,15.60
2016,08,20,04,18,15.50
2016,08,20,04,19,15.50
2016,08,20,04,20,15.40
2016,08,20,04,21,15.40
2016,08,20,04,22,15.40
2016,08,20,04,23,15.40
2016,08,20,04,24,15.30
2016,08,20,04,25,15.30
2016,08,20,04,26,15.30
2016,08,20,04,27,15.30
2016,08,20,04,28,15.20
2016,08,20,04,29,15.20
2016,08,20,04,30,15.20
2016,08,20,04,31,15.20
2016,08,20,04,32,15.20
2016,08,20,04,33,15.20
2016,08,20,04,34,15.20
2016,08,20,04,35,15.20
2016,08,20,04,36,15.20
2016,08,20,04,37,15.20
2016,08,20,04,38,15.20
2016,08,20,04,39,15.20
2016,08,20,04,40,15.10
2016,08,20,04,41,15.10
2016,08,20,04,42,15.10
2016,08,20,04,43,15.10
2016,08,20,04,44,15.10
2016,08,20,04,45,15.10
2016,08,20,04,46,15.10
2016,08,20,04,47,15.00
2016,08,20,04,48,15.00
2016,08,20,04,49,15.00
2016,08,20,04,50,15.00
2016,08,20,04,51,14.90
2016,08,20,04,52,14.90
2016,08,20,04,53,14.90
2016,08,20,04,54,14.90
2016,08,20,04,55,14.90
2016,08,20,04,56,14.90
2016,08,20,04,57,14.90
2016,08,20,04,58,14.90
2016,08,20,04,59,14.90
2016,08,20,05,00,14.90
2016,08,20,05,01,14.90
2016,08,20,05,02,14.90
2016,08,20,05,03,14.90
2016,08,20,05,04,14.90
2016,08,20,05,05,14.90
2016,08,20,05,06,14.90
2016,08,20,05,07,14.80
2016,08,20,05,08,14.80
2016,08,20,05,09,14.80
2016,08,20,05,10,14.80
2016,08,20,05,11,14.80
2016,08,20,05,12,14.80
2016,08,20,05,13,14.80
2016,08,20,05,14,14.80
2016,08,20,05,15,14.80
2016,08,20,05,16,14.80
2016,08,20,05,17,14.80
2016,08,20,05,18,14.70
2016,08,20,05,19,14.70
2016,08,20,05,20,14.70
2016,08,20,05,21,14.70
2016,08,20,05,22,14.70
2016,08,20,05,23,14.70
2016,08,20,05,24,14.70
2016,08,20,05,25,14.70
2016,08,20,05,26,14.70
2016,08,20,05,27,14.60
2016,08,20,05,28,14.60
2016,08,20,05,29,14.60
2016,08,20,05,30,14.60
2016,08,20,05,31,14.60
2016,08,20,05,32,14.70
2016,08,20,05,33,14.70
2016,08,20,05,34,14.70
2016,08,20,05,35,14.70
2016,08,20,05,36,14.70
2016,08,20,05,37,14.70
2016,08,20,05,38,14.60
2016,08,20,05,39,14.60
2016,08,20,05,40,14.60
2016,08,20,05,41,14.60
2016,08,20,05,42,14.60
2016,08,20,05,43,14.60
2016,08,20,05,44,14.50
2016,08,20,05,45,14.50
2016,08,20,05,46,14.40
2016,08,20,05,47,14.40
2016,08,20,05,48,14.40
2016,08,20,05,49,14.40
2016,08,20,05,50,14.40
2016,08,20,05,51,14.40
2016,08,20,05,52,14.30
2016,08,20,05,53,14.30
2016,08,20,05,54,14.30
2016,08,20,05,55,14.30
2016,08,20,05,56,14.30
2016,08,20,05,57,14.30
2016,08,20,05,58,14.20
2016,08,20,05,59,14.20
2016,08,20,06,00,14.20
2016,08,20,06,01,14.20
2016,08,20,06,02,14.10
2016,08,20,06,03,14.10
2016,08,20,06,04,14.10
2016,08,20,06,05,14.10
2016,08,20,06,06,14.10
2016,08,20,06,07,14.10
2016,08,20,06,08,14.10
2016,08,20,06,09,14.10
2016,08,20,06,10,14.10
2016,08,20,06,11,14.10
2016,08,20,06,12,14.10
2016,08,20,06,13,14.10
2016,08,20,06,14,14.10
2016,08,20,06,15,14.10
2016,08,20,06,16,14.00
2016,08,20,06,17,14.00
2016,08,20,06,18,14.00
2016,08,20,06,19,14.00
2016,08,20,06,20,14.00
2016,08,20,06,21,14.00
2016,08,20,06,22,14.10
2016,08,20,06,23,14.10
2016,08,20,06,24,14.10
2016,08,20,06,25,14.10
2016,08,20,06,26,14.10
2016,08,20,06,27,14.10
2016,08,20,06,28,14.10
2016,08,20,06,29,14.00
2016,08,20,06,30,14.00
2016,08,20,06,31,14.00
2016,08,20,06,32,14.00
2016,08,20,06,33,13.90
2016,08,20,06,34,13.90
2016,08,20,06,35,13.90
2016,08,20,06,36,13.90
2016,08,20,06,37,13.90
2016,08,20,06,38,13.80
2016,08,20,06,39,13.80
2016,08,20,06,40,13.80
2016,08,20,06,41,13.80
2016,08,20,06,42,13.80
2016,08,20,06,43,13.80
2016,08,20,06,44,13.80
2016,08,20,06,45,13.80
2016,08,20,06,46,13.80
2016,08,20,06,47,13.80
2016,08,20,06,48,13.80
2016,08,20,06,49,13.80
2016,08,20,06,50,13.80
2016,08,20,06,51,13.80
2016,08,20,06,52,13.80
2016,08,20,06,53,13.80
2016,08,20,06,54,13.80
2016,08,20,06,55,13.80
2016,08,20,06,56,13.80
2016,08,20,06,57,13.70
2016,08,20,06,58,13.70
2016,08,20,06,59,13.70
2016,08,20,07,00,13.70
2016,08,20,07,01,13.70
2016,08,20,07,02,13.70
2016,08,20,07,03,13.70
2016,08,20,07,04,13.70
2016,08,20,07,05,13.70
2016,08,20,07,06,13.70
2016,08,20,07,07,13.70
2016,08,20,07,08,13.70
2016,08,20,07,09,13.70
2016,08,20,07,10,13.70
2016,08,20,07,11,13.70
2016,08,20,07,12,13.70
2016,08,20,07,13,13.70
2016,08,20,07,14,13.70
2016,08,20,07,15,13.70
2016,08,20,07,16,13.80
2016,08,20,07,17,13.80
2016,08,20,07,18,13.80
2016,08,20,07,19,13.80
2016,08,20,07,20,13.80
2016,08,20,07,21,13.80
2016,08,20,07,22,13.80
2016,08,20,07,23,13.80
2016,08,20,07,24,13.80
2016,08,20,07,25,13.90
2016,08,20,07,26,13.90
2016,08,20,07,27,13.90
2016,08,20,07,28,14.00
2016,08,20,07,29,14.00
2016,08,20,07,30,14.10
2016,08,20,07,31,14.20
2016,08,20,07,32,14.20
2016,08,20,07,33,14.30
2016,08,20,07,34,14.40
2016,08,20,07,35,14.40
2016,08,20,07,36,14.50
2016,08,20,07,37,14.60
2016,08,20,07,38,14.70
2016,08,20,07,39,14.70
2016,08,20,07,40,14.70
2016,08,20,07,41,14.80
2016,08,20,07,42,14.90
2016,08,20,07,43,14.90
2016,08,20,07,44,15.00
2016,08,20,07,45,15.00
2016,08,20,07,46,15.10
2016,08,20,07,47,15.10
2016,08,20,07,48,15.20
2016,08,20,07,49,15.30
2016,08,20,07,50,15.30
2016,08,20,07,51,15.40
2016,08,20,07,52,15.50
2016,08,20,07,53,15.60
2016,08,20,07,54,15.70
2016,08,20,07,55,15.80
2016,08,20,07,56,15.90
2016,08,20,07,57,15.90
2016,08,20,07,58,16.00
2016,08,20,07,59,16.00
2016,08,20,08,00,16.10
2016,08,20,08,01,16.10
2016,08,20,08,02,16.10
2016,08,20,08,03,16.10
2016,08,20,08,04,16.20
2016,08,20,08,05,16.20
2016,08,20,08,06,16.30
2016,08,20,08,07,16.40
2016,08,20,08,08,16.60
2016,08,20,08,09,16.70
2016,08,20,08,10,16.90
2016,08,20,08,11,17.10
2016,08,20,08,12,17.20
2016,08,20,08,13,17.40
2016,08,20,08,14,17.50
2016,08,20,08,15,17.70
2016,08,20,08,16,17.80
2016,08,20,08,17,18.00
2016,08,20,08,18,18.20
2016,08,20,08,19,18.30
2016,08,20,08,20,18.40
2016,08,20,08,21,18.60
2016,08,20,08,22,18.70
2016,08,20,08,23,18.80
2016,08,20,08,24,18.90
2016,08,20,08,25,19.00
2016,08,20,08,26,19.10
2016,08,20,08,27,19.20
2016,08,20,08,28,19.30
2016,08,20,08,29,19.40
2016,08,20,08,30,19.50
2016,08,20,08,31,19.60
2016,08,20,08,32,19.70
2016,08,20,08,33,19.90
2016,08,20,08,34,20.00
2016,08,20,08,35,20.10
2016,08,20,08,36,20.20
2016,08,20,08,37,20.40
2016,08,20,08,38,20.50
2016,08,20,08,39,20.60
2016,08,20,08,40,20.70
2016,08,20,08,41,20.80
2016,08,20,08,42,21.00
2016,08,20,08,43,21.10
2016,08,20,08,44,21.30
2016,08,20,08,45,21.40
2016,08,20,08,46,21.50
2016,08,20,08,47,21.70
2016,08,20,08,48,21.80
2016,08,20,08,49,22.00
2016,08,20,08,50,22.00
2016,08,20,08,51,22.10
2016,08,20,08,52,22.20
2016,08,20,08,53,22.40
2016,08,20,08,54,22.50
2016,08,20,08,55,22.60
2016,08,20,08,56,22.80
2016,08,20,08,57,22.80
2016,08,20,08,58,22.80
2016,08,20,08,59,22.90
2016,08,20,09,00,22.80
2016,08,20,09,01,22.80
2016,08,20,09,02,22.80
2016,08,20,09,03,22.60
2016,08,20,09,04,22.40
2016,08,20,09,05,22.40
2016,08,20,09,06,22.30
2016,08,20,09,07,22.20
2016,08,20,09,08,22.10
2016,08,20,09,09,22.00
2016,08,20,09,10,22.00
2016,08,20,09,11,21.90
2016,08,20,09,12,22.00
2016,08,20,09,13,21.90
2016,08,20,09,14,21.90
2016,08,20,09,15,21.90
2016,08,20,09,16,21.90
2016,08,20,09,17,22.00
2016,08,20,09,18,22.10
2016,08,20,09,19,22.00
2016,08,20,09,20,22.00
2016,08,20,09,21,22.00
2016,08,20,09,22,22.00
2016,08,20,09,23,22.00
2016,08,20,09,24,22.00
2016,08,20,09,25,22.10
2016,08,20,09,26,22.10
2016,08,20,09,27,22.20
2016,08,20,09,28,22.20
2016,08,20,09,29,22.30
2016,08,20,09,30,22.30
2016,08,20,09,31,22.30
2016,08,20,09,32,22.40
2016,08,20,09,33,22.40
2016,08,20,09,34,22.50
2016,08,20,09,35,22.50
2016,08,20,09,36,22.50
2016,08,20,09,37,22.60
2016,08,20,09,38,22.60
2016,08,20,09,39,22.70
2016,08,20,09,40,22.70
2016,08,20,09,41,22.70
2016,08,20,09,42,22.70
2016,08,20,09,43,22.70
2016,08,20,09,44,22.80
2016,08,20,09,45,22.80
2016,08,20,09,46,22.80
2016,08,20,09,47,22.90
2016,08,20,09,48,23.00
2016,08,20,09,49,23.00
2016,08,20,09,50,23.10
2016,08,20,09,51,23.10
2016,08,20,09,52,23.10
2016,08,20,09,53,23.10
2016,08,20,09,54,23.10
2016,08,20,09,55,23.10
2016,08,20,09,56,23.10
2016,08,20,09,57,23.10
2016,08,20,09,58,23.20
2016,08,20,09,59,23.20
2016,08,20,10,00,23.30
2016,08,20,10,01,23.30
2016,08,20,10,02,23.30
2016,08,20,10,03,23.30
2016,08,20,10,04,23.40
2016,08,20,10,05,23.40
2016,08,20,10,06,23.30
2016,08,20,10,07,23.40
2016,08,20,10,08,23.40
2016,08,20,10,09,23.40
2016,08,20,10,10,23.40
2016,08,20,10,11,23.50
2016,08,20,10,12,23.50
2016,08,20,10,13,23.60
2016,08,20,10,14,23.60
2016,08,20,10,15,23.60
2016,08,20,10,16,23.60
2016,08,20,10,17,23.70
2016,08,20,10,18,23.70
2016,08,20,10,19,23.80
2016,08,20,10,20,23.90
2016,08,20,10,21,24.00
2016,08,20,10,22,24.00
2016,08,20,10,23,24.00
2016,08,20,10,24,24.10
2016,08,20,10,25,24.20
2016,08,20,10,26,24.30
2016,08,20,10,27,24.30
2016,08,20,10,28,24.40
2016,08,20,10,29,24.40
2016,08,20,10,30,24.40
2016,08,20,10,31,24.40
2016,08,20,10,32,24.40
2016,08,20,10,33,24.30
2016,08,20,10,34,24.30
2016,08,20,10,35,24.30
2016,08,20,10,36,24.40
2016,08,20,10,37,24.40
2016,08,20,10,38,24.40
2016,08,20,10,39,24.50
2016,08,20,10,40,24.60
2016,08,20,10,41,24.60
2016,08,20,10,42,24.70
2016,08,20,10,43,24.80
2016,08,20,10,44,24.80
2016,08,20,10,45,24.90
2016,08,20,10,46,24.90
2016,08,20,10,47,24.80
2016,08,20,10,48,24.70
2016,08,20,10,49,24.60
2016,08,20,10,50,24.60
2016,08,20,10,51,24.60
2016,08,20,10,52,24.60
2016,08,20,10,53,24.60
2016,08,20,10,54,24.70
2016,08,20,10,55,24.60
2016,08,20,10,56,24.70
2016,08,20,10,57,24.80
2016,08,20,10,58,24.90
2016,08,20,10,59,25.00
2016,08,20,11,00,25.00
2016,08,20,11,01,25.00
2016,08,20,11,02,25.10
2016,08,20,11,03,25.10
2016,08,20,11,04,25.20
2016,08,20,11,05,25.30
2016,08,20,11,06,25.30
2016,08,20,11,07,25.30
2016,08,20,11,08,25.40
2016,08,20,11,09,25.40
2016,08,20,11,10,25.30
2016,08,20,11,11,25.30
2016,08,20,11,12,25.20
2016,08,20,11,13,25.30
2016,08,20,11,14,25.30
2016,08,20,11,15,25.30
2016,08,20,11,16,25.30
2016,08,20,11,17,25.30
2016,08,20,11,18,25.30
2016,08,20,11,19,25.30
2016,08,20,11,20,25.30
2016,08,20,11,21,25.20
2016,08,20,11,22,25.20
2016,08,20,11,23,25.30
2016,08,20,11,24,25.50
2016,08,20,11,25,25.60
2016,08,20,11,26,25.70
2016,08,20,11,27,25.70
2016,08,20,11,28,25.70
2016,08,20,11,29,25.80
2016,08,20,11,30,25.80
2016,08,20,11,31,25.80
2016,08,20,11,32,25.70
2016,08,20,11,33,25.60
2016,08,20,11,34,25.50
2016,08,20,11,35,25.50
2016,08,20,11,36,25.50
2016,08,20,11,37,25.50
2016,08,20,11,38,25.50
2016,08,20,11,39,25.40
2016,08,20,11,40,25.50
2016,08,20,11,41,25.60
2016,08,20,11,42,25.60
2016,08,20,11,43,25.70
2016,08,20,11,44,25.80
2016,08,20,11,45,25.90
2016,08,20,11,46,26.00
2016,08,20,11,47,26.10
2016,08,20,11,48,26.00
2016,08,20,11,49,25.90
2016,08,20,11,50,25.90
2016,08,20,11,51,26.00
2016,08,20,11,52,26.10
2016,08,20,11,53,26.10
2016,08,20,11,54,26.00
2016,08,20,11,55,25.90
2016,08,20,11,56,25.80
2016,08,20,11,57,25.80
2016,08,20,11,58,25.90
2016,08,20,11,59,25.80
2016,08,20,12,00,25.80
2016,08,20,12,01,25.80
2016,08,20,12,02,25.80
2016,08,20,12,03,26.00
2016,08,20,12,04,26.10
2016,08,20,12,05,26.20
2016,08,20,12,06,26.30
2016,08,20,12,07,26.30
2016,08,20,12,08,26.20
2016,08,20,12,09,26.10
2016,08,20,12,10,26.10
2016,08,20,12,11,26.20
2016,08,20,12,12,26.30
2016,08,20,12,13,26.20
2016,08,20,12,14,26.10
2016,08,20,12,15,26.10
2016,08,20,12,16,26.10
2016,08,20,12,17,26.10
2016,08,20,12,18,26.10
2016,08,20,12,19,26.10
2016,08,20,12,20,26.10
2016,08,20,12,21,26.10
2016,08,20,12,22,26.00
2016,08,20,12,23,26.00
2016,08,20,12,24,26.00
2016,08,20,12,25,26.00
2016,08,20,12,26,26.00
2016,08,20,12,27,25.90
2016,08,20,12,28,25.90
2016,08,20,12,29,26.00
2016,08,20,12,30,26.00
2016,08,20,12,31,26.10
2016,08,20,12,32,26.00
2016,08,20,12,33,26.10
2016,08,20,12,34,26.10
2016,08,20,12,35,26.20
2016,08,20,12,36,26.20
2016,08,20,12,37,26.10
2016,08,20,12,38,26.10
2016,08,20,12,39,26.10
2016,08,20,12,40,26.10
2016,08,20,12,41,26.20
2016,08,20,12,42,26.20
2016,08,20,12,43,26.30
2016,08,20,12,44,26.30
2016,08,20,12,45,26.30
2016,08,20,12,46,26.40
2016,08,20,12,47,26.60
2016,08,20,12,48,26.70
2016,08,20,12,49,26.60
2016,08,20,12,50,26.60
2016,08,20,12,51,26.60
2016,08,20,12,52,26.60
2016,08,20,12,53,26.50
2016,08,20,12,54,26.40
2016,08,20,12,55,26.40
2016,08,20,12,56,26.40
2016,08,20,12,57,26.50
2016,08,20,12,58,26.50
2016,08,20,12,59,26.40
2016,08,20,13,00,26.30
2016,08,20,13,01,26.40
2016,08,20,13,02,26.50
2016,08,20,13,03,26.50
2016,08,20,13,04,26.40
2016,08,20,13,05,26.40
2016,08,20,13,06,26.40
2016,08,20,13,07,26.40
2016,08,20,13,08,26.40
2016,08,20,13,09,26.40
2016,08,20,13,10,26.30
2016,08,20,13,11,26.30
2016,08,20,13,12,26.40
2016,08,20,13,13,26.50
2016,08,20,13,14,26.60
2016,08,20,13,15,26.70
2016,08,20,13,16,26.70
2016,08,20,13,17,26.60
2016,08,20,13,18,26.50
2016,08,20,13,19,26.40
2016,08,20,13,20,26.40
2016,08,20,13,21,26.50
2016,08,20,13,22,26.60
2016,08,20,13,23,26.70
2016,08,20,13,24,26.80
2016,08,20,13,25,26.80
2016,08,20,13,26,26.90
2016,08,20,13,27,26.90
2016,08,20,13,28,26.90
2016,08,20,13,29,26.80
2016,08,20,13,30,26.70
2016,08,20,13,31,26.70
2016,08,20,13,32,26.70
2016,08,20,13,33,26.70
2016,08,20,13,34,26.80
2016,08,20,13,35,26.90
2016,08,20,13,36,26.90
2016,08,20,13,37,26.90
2016,08,20,13,38,26.80
2016,08,20,13,39,26.70
2016,08,20,13,40,26.70
2016,08,20,13,41,26.70
2016,08,20,13,42,26.70
2016,08,20,13,43,26.70
2016,08,20,13,44,26.80
2016,08,20,13,45,27.00
2016,08,20,13,46,27.20
2016,08,20,13,47,27.30
2016,08,20,13,48,27.30
2016,08,20,13,49,27.40
2016,08,20,13,50,27.60
2016,08,20,13,51,27.60
2016,08,20,13,52,27.60
2016,08,20,13,53,27.40
2016,08,20,13,54,27.40
2016,08,20,13,55,27.40
2016,08,20,13,56,27.40
2016,08,20,13,57,27.40
2016,08,20,13,58,27.40
2016,08,20,13,59,27.50
2016,08,20,14,00,27.50
2016,08,20,14,01,27.60
2016,08,20,14,02,27.80
2016,08,20,14,03,28.00
2016,08,20,14,04,28.20
2016,08,20,14,05,28.40
2016,08,20,14,06,28.40
2016,08,20,14,07,28.40
2016,08,20,14,08,28.40
2016,08,20,14,09,28.40
2016,08,20,14,10,28.40
2016,08,20,14,11,28.40
2016,08,20,14,12,28.30
2016,08,20,14,13,28.30
2016,08,20,14,14,28.10
2016,08,20,14,15,27.90
2016,08,20,14,16,27.90
2016,08,20,14,17,27.90
2016,08,20,14,18,27.90
2016,08,20,14,19,28.00
2016,08,20,14,20,28.10
2016,08,20,14,21,28.10
2016,08,20,14,22,28.00
2016,08,20,14,23,27.90
2016,08,20,14,24,27.80
2016,08,20,14,25,27.70
2016,08,20,14,26,27.70
2016,08,20,14,27,27.80
2016,08,20,14,28,27.80
2016,08,20,14,29,27.90
2016,08,20,14,30,28.00
2016,08,20,14,31,28.00
2016,08,20,14,32,28.00
2016,08,20,14,33,28.10
2016,08,20,14,34,28.10
2016,08,20,14,35,28.10
2016,08,20,14,36,28.20
2016,08,20,14,37,28.30
2016,08,20,14,38,28.40
2016,08,20,14,39,28.40
2016,08,20,14,40,28.30
2016,08,20,14,41,28.20
2016,08,20,14,42,28.20
2016,08,20,14,43,28.20
2016,08,20,14,44,28.20
2016,08,20,14,45,28.20
2016,08,20,14,46,28.40
2016,08,20,14,47,28.50
2016,08,20,14,48,28.60
2016,08,20,14,49,28.70
2016,08,20,14,50,28.50
2016,08,20,14,51,28.40
2016,08,20,14,52,28.30
2016,08,20,14,53,28.30
2016,08,20,14,54,28.30
2016,08,20,14,55,28.40
2016,08,20,14,56,28.50
2016,08,20,14,57,28.60
2016,08,20,14,58,28.60
2016,08,20,14,59,28.60
2016,08,20,15,00,28.40
2016,08,20,15,01,28.20
2016,08,20,15,02,28.10
2016,08,20,15,03,28.10
2016,08,20,15,04,28.10
2016,08,20,15,05,28.10
2016,08,20,15,06,28.20
2016,08,20,15,07,28.20
2016,08,20,15,08,28.40
2016,08,20,15,09,28.50
2016,08,20,15,10,28.60
2016,08,20,15,11,28.60
2016,08,20,15,12,28.50
2016,08,20,15,13,28.40
2016,08,20,15,14,28.40
2016,08,20,15,15,28.40
2016,08,20,15,16,28.40
2016,08,20,15,17,28.40
2016,08,20,15,18,28.50
2016,08,20,15,19,28.50
2016,08,20,15,20,28.60
2016,08,20,15,21,28.70
2016,08,20,15,22,28.70
2016,08,20,15,23,28.60
2016,08,20,15,24,28.60
2016,08,20,15,25,28.70
2016,08,20,15,26,28.80
2016,08,20,15,27,28.90
2016,08,20,15,28,29.10
2016,08,20,15,29,29.20
2016,08,20,15,30,29.20
2016,08,20,15,31,29.30
2016,08,20,15,32,29.40
2016,08,20,15,33,29.50
2016,08,20,15,34,29.50
2016,08,20,15,35,29.50
2016,08,20,15,36,29.50
2016,08,20,15,37,29.40
2016,08,20,15,38,29.30
2016,08,20,15,39,29.20
2016,08,20,15,40,29.10
2016,08,20,15,41,29.10
2016,08,20,15,42,29.10
2016,08,20,15,43,29.10
2016,08,20,15,44,29.10
2016,08,20,15,45,29.20
2016,08,20,15,46,29.30
2016,08,20,15,47,29.30
2016,08,20,15,48,29.20
2016,08,20,15,49,29.20
2016,08,20,15,50,29.30
2016,08,20,15,51,29.30
2016,08,20,15,52,29.30
2016,08,20,15,53,29.40
2016,08,20,15,54,29.50
2016,08,20,15,55,29.60
2016,08,20,15,56,29.50
2016,08,20,15,57,29.40
2016,08,20,15,58,29.30
2016,08,20,15,59,29.30
2016,08,20,16,00,29.40
2016,08,20,16,01,29.40
2016,08,20,16,02,29.50
2016,08,20,16,03,29.60
2016,08,20,16,04,29.60
2016,08,20,16,05,29.50
2016,08,20,16,06,29.50
2016,08,20,16,07,29.60
2016,08,20,16,08,29.60
2016,08,20,16,09,29.70
2016,08,20,16,10,29.80
2016,08,20,16,11,29.90
2016,08,20,16,12,30.10
2016,08,20,16,13,30.20
2016,08,20,16,14,30.30
2016,08,20,16,15,30.40
2016,08,20,16,16,30.40
2016,08,20,16,17,30.50
2016,08,20,16,18,30.50
2016,08,20,16,19,30.40
2016,08,20,16,20,30.40
2016,08,20,16,21,30.50
2016,08,20,16,22,30.20
2016,08,20,16,23,30.10
2016,08,20,16,24,29.90
2016,08,20,16,25,29.70
2016,08,20,16,26,29.60
2016,08,20,16,27,29.50
2016,08,20,16,28,29.50
2016,08,20,16,29,29.50
2016,08,20,16,30,29.40
2016,08,20,16,31,29.40
2016,08,20,16,32,29.40
2016,08,20,16,33,29.30
2016,08,20,16,34,29.30
2016,08,20,16,35,29.30
2016,08,20,16,36,29.30
2016,08,20,16,37,29.20
2016,08,20,16,38,29.10
2016,08,20,16,39,29.10
2016,08,20,16,40,29.10
2016,08,20,16,41,29.10
2016,08,20,16,42,29.10
2016,08,20,16,43,29.20
2016,08,20,16,44,29.30
2016,08,20,16,45,29.40
2016,08,20,16,46,29.50
2016,08,20,16,47,29.50
2016,08,20,16,48,29.40
2016,08,20,16,49,29.40
2016,08,20,16,50,29.40
2016,08,20,16,51,29.40
2016,08,20,16,52,29.40
2016,08,20,16,53,29.40
2016,08,20,16,54,29.50
2016,08,20,16,55,29.60
2016,08,20,16,56,29.60
2016,08,20,16,57,29.60
2016,08,20,16,58,29.50
2016,08,20,16,59,29.40
2016,08,20,17,00,29.50
2016,08,20,17,01,29.50
2016,08,20,17,02,29.50
2016,08,20,17,03,29.60
2016,08,20,17,04,29.60
2016,08,20,17,05,29.50
2016,08,20,17,06,29.50
2016,08,20,17,07,29.60
2016,08,20,17,08,29.60
2016,08,20,17,09,29.60
2016,08,20,17,10,29.60
2016,08,20,17,11,29.50
2016,08,20,17,12,29.60
2016,08,20,17,13,29.60
2016,08,20,17,14,29.70
2016,08,20,17,15,29.70
2016,08,20,17,16,29.70
2016,08,20,17,17,29.60
2016,08,20,17,18,29.60
2016,08,20,17,19,29.50